Tracking 19832 objects as of 24-Aug-2019
HD Live streaming from Space Station
objects crossing your sky now

SL-8 R/B

Track SL-8 R/B now!
10-day predictions


NORAD ID: 18121
Int'l Code: 1987-051J
Perigee: 1,483.9 km
Apogee: 1,693.5 km
Inclination: 74.0 °
Period: 117.8 minutes
Semi major axis: 7959 km
RCS: 6.2494 m2 (large)
Launch date: June 16, 1987
Source: Commonwealth of Independent States (former USSR) (CIS)
Launch site: PLESETSK MISSILE AND SPACE COMPLEX (PKMTR)

Note: This is a ROCKET BODY
aabbcc
Your satellite tracking list
Your tracking list is empty




NASA's NSSDC Master Catalog

Two Line Element Set (TLE):
1 18121U 87051J   19236.07428566 -.00000061  00000-0 -42482-3 0  9995
2 18121  74.0049  84.1666 0131664  78.6126  35.5560 12.22527424436605
Source of the keplerian elements: AFSPC